TimeMST,TemperatureF,Dew PointF,Humidity,Sea Level PressureIn,VisibilityMPH,Wind Direction,Wind SpeedMPH,Gust SpeedMPH,PrecipitationIn,Events,Conditions,WindDirDegrees,DateUTC
12:53 AM,23.0,14.0,68,30.32,10.0,East,4.6,-,N/A,,Overcast,100,2013-02-12 07:53:00
1:53 AM,21.9,15.1,75,30.32,10.0,NW,4.6,-,N/A,,Overcast,310,2013-02-12 08:53:00
2:53 AM,23.0,14.0,68,30.31,10.0,NNW,4.6,-,N/A,,Overcast,340,2013-02-12 09:53:00
3:53 AM,23.0,12.9,65,30.31,10.0,NNE,3.5,-,N/A,,Overcast,20,2013-02-12 10:53:00
4:53 AM,23.0,12.9,65,30.32,10.0,East,4.6,-,N/A,,Overcast,80,2013-02-12 11:53:00
5:53 AM,23.0,12.9,65,30.34,10.0,East,5.8,-,N/A,,Overcast,90,2013-02-12 12:53:00
6:53 AM,23.0,12.0,63,30.35,10.0,ENE,6.9,-,N/A,,Overcast,70,2013-02-12 13:53:00
7:53 AM,23.0,12.0,63,30.36,10.0,NE,9.2,-,N/A,,Mostly Cloudy,40,2013-02-12 14:53:00
8:53 AM,24.1,14.0,65,30.39,10.0,Variable,4.6,-,N/A,,Mostly Cloudy,0,2013-02-12 15:53:00
9:53 AM,26.1,12.9,58,30.39,10.0,East,4.6,-,N/A,,Mostly Cloudy,80,2013-02-12 16:53:00
10:53 AM,30.9,17.1,57,30.40,10.0,South,12.7,-,N/A,,Mostly Cloudy,190,2013-02-12 17:53:00
11:53 AM,32.0,18.0,56,30.39,10.0,South,15.0,-,N/A,,Mostly Cloudy,190,2013-02-12 18:53:00
12:53 PM,33.1,19.0,56,30.36,10.0,SSW,11.5,-,N/A,,Mostly Cloudy,200,2013-02-12 19:53:00
1:53 PM,32.0,19.0,59,30.36,10.0,South,12.7,-,N/A,,Mostly Cloudy,190,2013-02-12 20:53:00
1:56 PM,32.0,19.4,60,30.26,10.0,South,12.7,-,N/A,,Overcast,190,2013-02-12 20:56:00
2:53 PM,30.9,19.0,61,30.36,10.0,South,15.0,-,N/A,,Overcast,190,2013-02-12 21:53:00
3:53 PM,30.9,19.9,64,30.37,10.0,South,11.5,-,N/A,,Overcast,190,2013-02-12 22:53:00
4:53 PM,30.9,19.9,64,30.35,10.0,South,12.7,-,N/A,,Overcast,190,2013-02-12 23:53:00
5:53 PM,30.0,21.0,69,30.35,10.0,SSW,15.0,-,N/A,,Mostly Cloudy,200,2013-02-13 00:53:00
6:53 PM,30.0,21.9,72,30.38,10.0,SSW,12.7,-,N/A,,Overcast,200,2013-02-13 01:53:00
7:53 PM,30.9,23.0,72,30.38,10.0,South,10.4,-,N/A,,Overcast,190,2013-02-13 02:53:00
8:53 PM,30.9,23.0,72,30.38,10.0,South,11.5,-,N/A,,Overcast,190,2013-02-13 03:53:00
9:53 PM,30.9,21.9,69,30.38,10.0,South,15.0,-,N/A,,Overcast,190,2013-02-13 04:53:00
10:53 PM,30.9,21.9,69,30.36,10.0,South,12.7,-,N/A,,Overcast,190,2013-02-13 05:53:00
11:53 PM,30.0,21.0,69,30.35,10.0,SSW,13.8,-,N/A,,Overcast,200,2013-02-13 06:53:00